Weather History for Lemoore NAS, CA

Change the Weather History Date:

Friday, September 13, 2013

  Actual Average Record
Temperature  
Mean Temperature 80 °F -  
Max Temperature 97 °F 89 °F 102 °F (2014)
Min Temperature 64 °F 57 °F 48 °F (2005)
Cooling Degree Days 15    
Growing Degree Days 30 (Base 50)    
Moisture  
Dew Point 54 °F    
Average Humidity 44    
Maximum Humidity 64    
Minimum Humidity 25    
Precipitation  
Precipitation 0.00 in - - ()
Sea Level Pressure  
Sea Level Pressure 29.79 in    
Wind  
Wind Speed 6 mph (NNW)    
Max Wind Speed 10 mph    
Max Gust Speed -    
Visibility 10 miles    
Events      
Averages and records for this station are not official NWS values.
T = Trace of Precipitation, MM = Missing Value Source: NWS Daily Summary

Daily Weather History Graph

Daily Weather History Graph

Search for Another Location

Airport:

Trip Planner

Search our weather history database for the weather conditions in past years. The results will help you decide how hot, cold, wet, or windy it might be!

Date:

Astronomy

Sep. 13, 2013 Rise Set
Actual Time 6:40 AM PDT 7:09 PM PDT
Civil Twilight 6:15 AM PDT 7:35 PM PDT
Nautical Twilight 5:44 AM PDT 8:05 PM PDT
Astronomical Twilight 5:13 AM PDT 8:36 PM PDT
Moon 2:56 PM PDT (9/13) 12:22 AM PDT (9/13)
Length of Visible Light 13h 20m
Length of Day
12h 28m
Waxing Gibbous, 62% of the Moon is Illuminated
Sep 13
Waxing Gibbous
Sep 19
Full
Sep 26
Last Quarter
Oct 4
New
Oct 11
First Quarter

Hourly Weather History & Observations

Time (PDT) Temp. Heat Index Dew Point Humidity Pressure Visibility Wind Dir Wind Speed Gust Speed Precip Events Conditions
12:56 AM 70.0 °F - 52.0 °F 53% 29.85 in 10.0 mi NW 5.8 mph - N/A   Clear
1:56 AM 70.0 °F - 52.0 °F 53% 29.85 in 10.0 mi NNW 9.2 mph - N/A   Clear
2:56 AM 66.9 °F - 52.0 °F 59% 29.85 in 10.0 mi NW 4.6 mph - N/A   Clear
3:56 AM 66.9 °F - 54.0 °F 63% 29.84 in 10.0 mi West 3.5 mph - N/A   Clear
4:56 AM 66.0 °F - 52.0 °F 60% 29.84 in 10.0 mi WNW 4.6 mph - N/A   Clear
5:56 AM 64.9 °F - 52.0 °F 63% 29.85 in 10.0 mi West 5.8 mph - N/A   Clear
6:56 AM 64.9 °F - 51.1 °F 61% 29.85 in 10.0 mi West 5.8 mph - N/A   Clear
7:01 AM 64.4 °F - 51.8 °F 64% 29.85 in 10.0 mi West 5.8 mph - N/A   Clear
7:56 AM 71.1 °F - 55.0 °F 57% 29.85 in 9.0 mi NW 8.1 mph - N/A   Partly Cloudy
8:56 AM 75.9 °F - 55.9 °F 50% 29.86 in 10.0 mi NNW 8.1 mph - N/A   Partly Cloudy
9:56 AM 81.0 °F 81.0 °F 57.0 °F 44% 29.85 in 10.0 mi NNW 8.1 mph - N/A   Partly Cloudy
10:56 AM 84.9 °F 84.2 °F 57.9 °F 40% 29.84 in 10.0 mi North 8.1 mph - N/A   Clear
11:56 AM 87.1 °F 86.1 °F 57.9 °F 37% 29.81 in 10.0 mi Variable 4.6 mph - N/A   Clear
12:56 PM 90.0 °F 88.8 °F 57.9 °F 34% 29.79 in 10.0 mi Variable 3.5 mph - N/A   Clear
1:56 PM 91.9 °F 90.6 °F 57.0 °F 31% 29.76 in 10.0 mi Calm Calm - N/A   Clear
2:56 PM 93.9 °F 92.0 °F 55.0 °F 27% 29.74 in 10.0 mi North 10.4 mph - N/A   Clear
3:56 PM 96.1 °F 94.1 °F 55.0 °F 25% 29.72 in 10.0 mi North 9.2 mph - N/A   Clear
4:56 PM 96.1 °F 94.1 °F 55.0 °F 25% 29.70 in 10.0 mi North 8.1 mph - N/A   Clear
5:56 PM 93.9 °F 92.0 °F 55.0 °F 27% 29.69 in 10.0 mi North 6.9 mph - N/A   Clear
6:56 PM 90.0 °F 87.9 °F 55.0 °F 30% 29.69 in 10.0 mi North 6.9 mph - N/A   Clear
7:56 PM 84.9 °F 83.3 °F 54.0 °F 34% 29.70 in 10.0 mi North 8.1 mph - N/A   Clear
8:56 PM 81.0 °F 80.4 °F 53.1 °F 38% 29.71 in 10.0 mi NW 8.1 mph - N/A   Clear
9:56 PM 78.1 °F - 52.0 °F 40% 29.72 in 10.0 mi NNW 8.1 mph - N/A   Clear
10:56 PM 80.1 °F 80.1 °F 55.0 °F 42% 29.72 in 10.0 mi NNW 9.2 mph - N/A   Clear
11:56 PM 75.0 °F - 54.0 °F 48% 29.72 in 10.0 mi NNW 5.8 mph - N/A   Clear